Location: Burleson Alternative School
(32.5290°N, 97.3406°W)
Time: 08:50:07
(UTC+00:00)

Tiros 1 despin weight - Pass Details

Date: 18 November 2024
Orbit: 570 x 609 km, 48.2° (Epoch: 05 December)

Event Time Altitude Azimuth Distance (km) Brightness Sun altitude
Exits shadow 11:19:36 10° 359° (N) 1,923 ? -21.6°
Drops below altitude 10° 11:19:56 10° 3° (N) 1,928 ? -21.5°
Sets 11:24:45 0° 50° (NE) 2,814 ? -20.5°
